📊 Raw Sensor Data
Showing records 41951 to 41975 of 84,991 total
| ID | Distance (ft) | Battery V | Battery A | Int Temp (°F) | Int Humid (%) | Ext Temp (°F) | Solar V | RSSI | SNR | Time Stamp |
|---|---|---|---|---|---|---|---|---|---|---|
| 43053 | 15.2 | 4.03 | -5 | 59 | 46 | 59 | 0.10 | -70 | 8 | 06/09/2025 11:15 PM |
| 43052 | 15.2 | 4.03 | -5 | 59 | 46 | 60 | 0.00 | -70 | 8 | 06/09/2025 11:00 PM |
| 43051 | 15.2 | 4.03 | -5 | 60 | 46 | 60 | 0.00 | -71 | 8 | 06/09/2025 10:45 PM |
| 43050 | 15.2 | 3.97 | -5 | 60 | 47 | 60 | 0.00 | -71 | 8 | 06/09/2025 10:30 PM |
| 43049 | 15.2 | 3.97 | -5 | 60 | 47 | 61 | 0.00 | -70 | 8 | 06/09/2025 10:15 PM |
| 43048 | 15.2 | 4.03 | -5 | 61 | 48 | 61 | 0.00 | -69 | 8 | 06/09/2025 10:00 PM |
| 43047 | 15.2 | 4.03 | -5 | 61 | 48 | 61 | 0.00 | -73 | 8 | 06/09/2025 09:45 PM |
| 43046 | 15.2 | 4.03 | -5 | 62 | 49 | 62 | 0.00 | -74 | 7 | 06/09/2025 09:30 PM |
| 43045 | 15.2 | 4.03 | -5 | 63 | 50 | 62 | 0.00 | -72 | 8 | 06/09/2025 09:15 PM |
| 43044 | 15.5 | 3.98 | -5 | 64 | 52 | 63 | 0.00 | -73 | 7 | 06/09/2025 09:00 PM |
| 43043 | 15.5 | 3.98 | -5 | 65 | 53 | 64 | 1.10 | -71 | 7 | 06/09/2025 08:45 PM |
| 43042 | 15.6 | 3.97 | -9 | 67 | 55 | 65 | 3.30 | -72 | 8 | 06/09/2025 08:30 PM |
| 43041 | 15.6 | 4.04 | 0 | 71 | 54 | 67 | 4.50 | -72 | 8 | 06/09/2025 08:15 PM |
| 43040 | 15.6 | 4.00 | 0 | 75 | 54 | 70 | 4.50 | -72 | 8 | 06/09/2025 08:00 PM |
| 43039 | 15.7 | 4.07 | 7 | 78 | 53 | 73 | 4.50 | -71 | 7 | 06/09/2025 07:45 PM |
| 43038 | 15.7 | 4.02 | -16 | 81 | 53 | 75 | 4.50 | -72 | 8 | 06/09/2025 07:30 PM |
| 43037 | 15.7 | 4.08 | 0 | 84 | 52 | 77 | 4.50 | -71 | 7 | 06/09/2025 07:15 PM |
| 43036 | 15.7 | 4.04 | 22 | 87 | 52 | 81 | 4.50 | -72 | 8 | 06/09/2025 07:00 PM |
| 43035 | 15.7 | 4.08 | 25 | 88 | 51 | 81 | 4.50 | -72 | 6 | 06/09/2025 06:45 PM |
| 43034 | 15.7 | 4.02 | 0 | 89 | 51 | 82 | 5.10 | -72 | 8 | 06/09/2025 06:30 PM |
| 43033 | 15.7 | 4.02 | 0 | 91 | 51 | 83 | 5.10 | -72 | 8 | 06/09/2025 06:15 PM |
| 43032 | 15.7 | 4.02 | 0 | 91 | 51 | 82 | 5.10 | -72 | 8 | 06/09/2025 06:00 PM |
| 43031 | 15.7 | 4.12 | 0 | 93 | 51 | 84 | 5.10 | -74 | 8 | 06/09/2025 05:45 PM |
| 43030 | 15.7 | 4.02 | 0 | 95 | 50 | 85 | 5.10 | -74 | 8 | 06/09/2025 05:30 PM |
| 43029 | 15.7 | 4.02 | 0 | 97 | 49 | 88 | 5.10 | -71 | 7 | 06/09/2025 05:15 PM |